SCP
0 0 0 0 0 0 0 0 0 0 0 0 0 0 0 0 0 0 0 0 0 -0
0 0 0 0 0 0 0 0 0 0 0 0 0 0 0 0 0 0 0 0 -0 0
0 0 0 0 0 0 0 0 0 0 0 0 0 0 0 0 -0 0 0 0 0 0
0 0 0 0 0 0 0 0 0 0 0 0 0 0 0 0 0 0 0 0 0 0
0 0 0 0 0 0 0 0 0 0 0 0 0 0 0 0 0 0 0 0 0 0
0 0 0 0 0 0 0 0 0 0 0 0 0 0 0 0 0 0 0 0 0 0
0 0 0 0 0 0 0 0 0 0 0 0 0 0 0 0 0 0 0 0 0 0
0 0 0 0 0 0 0 0 0 0 0 0 0 0 0 0 0 0 0 0 0 0
0 0 0 0 0 0 0 0 0 0 0 0 0 0 0 0 0 0 0 0 0 -0
0 0 0 0 0 0 0 0 0 0 0 0 0 0 0 0 0 0 0 0 0 0
0 0 0 0 0 0 0 0 0 0 0 0 0 0 0 0 0 0 0 0 0 0
0 0 0 0 0 0 0 0 0 0 0 0 0 0 0 0 0 0 0 0 0 0
0 0 0 0 0 0 0 0 0 0 0 0 0 0 0 0 0 0 0 0 0 0
0 0 0 0 0 0 0 0 0 0 0 0 0 0 0 0 0 0 0 0 0 0
Wind_Speed_500mb
72 75 72 70 63 61 58 56 50 44 37 32 26 22 20 19 21 23 25 27 28 33
73 69 71 67 64 64 60 54 48 41 35 31 26 22 20 20 21 24 26 27 31 34
70 72 69 67 69 64 59 51 47 41 35 31 26 22 20 19 23 23 25 27 31 35
73 76 74 73 67 60 53 49 45 40 35 29 23 20 18 18 19 21 22 25 29 34
78 81 77 75 66 59 53 49 42 38 33 27 22 16 11 14 15 16 18 22 28 34
83 83 82 73 66 58 54 50 45 39 31 23 5 12 11 11 10 11 15 22 28 35
89 91 82 74 65 59 53 49 44 36 24 12 17 11 12 9 6 7 14 22 29 36
92 86 78 71 66 60 56 49 42 29 25 22 16 18 14 8 4 7 14 22 29 36
98 91 83 76 68 64 59 50 33 35 28 22 25 20 14 8 3 5 13 20 26 31
99 92 87 80 73 65 56 40 42 36 32 32 28 21 16 9 4 5 12 20 25 31
99 92 87 83 76 63 50 48 44 43 37 36 31 26 19 12 8 7 13 20 26 32
100 99 92 86 78 63 56 56 53 45 42 42 35 28 22 16 13 13 17 21 27 32
103 102 96 87 69 65 58 60 61 48 50 45 39 32 26 20 18 21 25 23 26 32
109 102 93 78 80 67 68 72 57 51 55 52 44 36 29 24 25 26 30 28 27 30
Wind_Direction_500mb
200 194 183 183 179 174 171 168 164 162 155 147 133 116 97 78 59 45 35 29 23 16
200 192 191 182 180 178 174 169 162 157 152 140 130 113 90 68 55 48 39 31 25 14
199 194 186 184 180 177 171 167 160 154 147 137 124 103 83 68 58 48 40 31 22 14
191 187 186 183 180 177 169 163 158 152 145 136 121 102 84 64 59 53 39 27 19 11
190 188 186 183 180 175 170 162 158 153 148 138 119 97 97 85 76 55 37 22 14 6
193 191 185 182 180 175 171 164 161 156 151 137 129 142 114 112 80 53 30 19 10 5
191 188 185 184 181 175 171 170 162 161 154 199 159 157 154 142 99 43 19 11 5 1
192 188 186 184 181 177 175 169 171 170 199 175 183 175 172 168 115 35 14 4 0 357
194 189 187 186 184 181 175 175 181 198 180 202 194 184 183 183 143 19 9 0 355 353
195 190 188 189 188 182 181 192 198 194 209 210 194 193 197 201 210 347 0 353 348 349
195 193 193 192 187 190 192 200 199 206 211 206 203 203 206 220 241 306 340 340 340 344
198 199 196 194 190 200 201 200 201 209 213 212 208 209 216 234 259 291 313 324 332 341
205 203 201 198 202 200 204 205 211 206 217 214 216 218 227 243 270 290 299 315 333 334
209 208 204 203 207 215 204 209 213 211 221 220 222 226 235 249 268 285 295 313 324 326
Wind_Speed_850mb
72 75 72 70 63 61 58 56 50 44 37 32 26 22 20 19 21 23 25 27 28 33
73 69 71 67 64 64 60 54 48 41 35 31 26 22 20 20 21 24 26 27 31 34
70 72 69 67 69 64 59 51 47 41 35 31 26 22 20 19 23 23 25 27 31 35
73 76 74 73 67 60 53 49 45 40 35 29 23 20 18 18 19 21 22 25 29 34
78 81 77 75 66 59 53 49 42 38 33 27 22 16 11 14 15 16 18 22 28 34
83 83 82 73 66 58 54 50 45 39 31 23 5 12 11 11 10 11 15 22 28 35
89 91 82 74 65 59 53 49 44 36 24 12 17 11 12 9 6 7 14 22 29 36
92 86 78 71 66 60 56 49 42 29 25 22 16 18 14 8 4 7 14 22 29 36
98 91 83 76 68 64 59 50 33 35 28 22 25 20 14 8 3 5 13 20 26 31
99 92 87 80 73 65 56 40 42 36 32 32 28 21 16 9 4 5 12 20 25 31
99 92 87 83 76 63 50 48 44 43 37 36 31 26 19 12 8 7 13 20 26 32
100 99 92 86 78 63 56 56 53 45 42 42 35 28 22 16 13 13 17 21 27 32
103 102 96 87 69 65 58 60 61 48 50 45 39 32 26 20 18 21 25 23 26 32
109 102 93 78 80 67 68 72 57 51 55 52 44 36 29 24 25 26 30 28 27 30
Wind_Direction_850mb
200 194 183 183 179 174 171 168 164 162 155 147 133 116 97 78 59 45 35 29 23 16
200 192 191 182 180 178 174 169 162 157 152 140 130 113 90 68 55 48 39 31 25 14
199 194 186 184 180 177 171 167 160 154 147 137 124 103 83 68 58 48 40 31 22 14
191 187 186 183 180 177 169 163 158 152 145 136 121 102 84 64 59 53 39 27 19 11
190 188 186 183 180 175 170 162 158 153 148 138 119 97 97 85 76 55 37 22 14 6
193 191 185 182 180 175 171 164 161 156 151 137 129 142 114 112 80 53 30 19 10 5
191 188 185 184 181 175 171 170 162 161 154 199 159 157 154 142 99 43 19 11 5 1
192 188 186 184 181 177 175 169 171 170 199 175 183 175 172 168 115 35 14 4 0 357
194 189 187 186 184 181 175 175 181 198 180 202 194 184 183 183 143 19 9 0 355 353
195 190 188 189 188 182 181 192 198 194 209 210 194 193 197 201 210 347 0 353 348 349
195 193 193 192 187 190 192 200 199 206 211 206 203 203 206 220 241 306 340 340 340 344
198 199 196 194 190 200 201 200 201 209 213 212 208 209 216 234 259 291 313 324 332 341
205 203 201 198 202 200 204 205 211 206 217 214 216 218 227 243 270 290 299 315 333 334
209 208 204 203 207 215 204 209 213 211 221 220 222 226 235 249 268 285 295 313 324 326